Location: ??
(35.1714°N, 128.2806°E)
Time: 15:00:13
(UTC+00:00)

YAOGAN 6 - Pass Details

Date: 29 October 2020
Orbit: 464 x 504 km, 97.0° (Epoch: 01 December)

Event Time Altitude Azimuth Distance (km) Brightness Sun altitude
Rises 21:17:55 0° 13° (NNE) 2,595 6.3 -6.4°
Reaches altitude 10° 21:20:02 10° 16° (NNE) 1,702 5.4 -6.0°
Maximum altitude 21:23:41 71° 100° (E) 524 3.0 -5.3°
Drops below altitude 10° 21:27:16 10° 185° (S) 1,668 5.4 -4.6°
Sets 21:29:19 0° 188° (S) 2,536 6.3 -4.2°
